| time (UTC) | temp C | wind direction | speed KPH | gust KPH | rain 1hr cm | rain 24hr cm | rain mn cm | humidity % | barometer mb |
| 20260510014559 | 15 | 0 | 0.0 | 0.0 | 0.00 | 0.41 | 0.41 | 96 | 1010.8 |
| 20260510013057 | 16 | 0 | 0.0 | 0.0 | 0.00 | 0.41 | 0.41 | 96 | 1010.7 |
| 20260510011554 | 16 | 0 | 0.0 | 0.0 | 0.00 | 0.41 | 0.41 | 95 | 1010.6 |
| 20260510010056 | 16 | 0 | 0.0 | 0.0 | 0.00 | 0.41 | 0.41 | 95 | 1010.3 |
| 20260510004559 | 16 | 0 | 0.0 | 0.0 | 0.00 | 0.41 | 0.41 | 94 | 1010.1 |
| 20260510003059 | 16 | 0 | 0.0 | 0.0 | 0.00 | 0.41 | 0.41 | 93 | 1010.0 |
| 20260510001552 | 17 | 0 | 0.0 | 0.0 | 0.00 | 0.41 | 0.41 | 93 | 1010.1 |
| 20260510000100 | 17 | 0 | 0.0 | 0.0 | 0.00 | 0.41 | 0.41 | 93 | 1010.1 |
| 20260509234552 | 17 | 0 | 0.0 | 0.0 | 0.00 | 0.41 | 0.41 | 92 | 1009.9 |
| 20260509233053 | 18 | 0 | 0.0 | 1.6 | 0.00 | 0.41 | 0.41 | 90 | 1009.9 |
| 20260509231552 | 18 | 129 | 0.0 | 4.8 | 0.00 | 0.41 | 0.41 | 88 | 1009.7 |
| 20260509230056 | 20 | 132 | 1.6 | 3.2 | 0.00 | 0.41 | 0.41 | 87 | 1009.4 |
| 20260509224552 | 20 | 141 | 1.6 | 3.2 | 0.00 | 0.41 | 0.41 | 87 | 1009.4 |
| 20260509223050 | 20 | 134 | 1.6 | 6.4 | 0.00 | 0.41 | 0.41 | 87 | 1009.3 |
| 20260509221549 | 20 | 143 | 1.6 | 6.4 | 0.00 | 0.41 | 0.41 | 87 | 1009.4 |
| 20260509220052 | 20 | 104 | 3.2 | 9.7 | 0.00 | 0.41 | 0.41 | 86 | 1009.6 |
| 20260509214610 | 20 | 181 | 1.6 | 12.9 | 0.00 | 0.41 | 0.41 | 85 | 1009.7 |
| 20260509213051 | 20 | 184 | 3.2 | 8.0 | 0.00 | 0.41 | 0.41 | 84 | 1009.6 |
| 20260509211550 | 20 | 86 | 3.2 | 9.7 | 0.00 | 0.41 | 0.41 | 84 | 1009.5 |
| 20260509204556 | 20 | 82 | 4.8 | 14.5 | 0.00 | 0.41 | 0.41 | 83 | 1009.8 |
| 20260509203107 | 21 | 149 | 4.8 | 22.5 | 0.00 | 0.41 | 0.41 | 83 | 1010.1 |
| 20260509201553 | 20 | 84 | 4.8 | 14.5 | 0.00 | 0.41 | 0.41 | 85 | 1010.1 |
| 20260509200055 | 20 | 0 | 1.6 | 16.1 | 0.00 | 0.41 | 0.41 | 87 | 1010.6 |
| 20260509194601 | 20 | 79 | 4.8 | 11.3 | 0.00 | 0.41 | 0.41 | 84 | 1010.6 |
| 20260509193106 | 19 | 183 | 4.8 | 14.5 | 0.00 | 0.41 | 0.41 | 86 | 1010.8 |
| 20260509191607 | 18 | 138 | 3.2 | 9.7 | 0.00 | 0.41 | 0.41 | 86 | 1010.9 |
| 20260509190057 | 18 | 121 | 1.6 | 9.7 | 0.00 | 0.41 | 0.41 | 89 | 1011.0 |
| 20260509184601 | 19 | 328 | 1.6 | 9.7 | 0.00 | 0.41 | 0.41 | 93 | 1011.1 |
| 20260509183057 | 18 | 83 | 3.2 | 8.0 | 0.00 | 0.41 | 0.41 | 94 | 1011.5 |
| 20260509181552 | 18 | 99 | 1.6 | 9.7 | 0.13 | 0.41 | 0.41 | 97 | 1011.6 |
| 20260509180049 | 17 | 67 | 1.6 | 4.8 | 0.15 | 0.41 | 0.41 | 98 | 1011.9 |
| 20260509174619 | 16 | 0 | 0.0 | 0.0 | 0.28 | 0.41 | 0.41 | 97 | 1012.0 |
| 20260509173056 | 16 | 0 | 0.0 | 0.0 | 0.30 | 0.41 | 0.41 | 96 | 1012.1 |
| 20260509171551 | 16 | 0 | 0.0 | 1.6 | 0.23 | 0.28 | 0.28 | 96 | 1012.2 |
| 20260509170051 | 16 | 0 | 0.0 | 6.4 | 0.25 | 0.25 | 0.25 | 96 | 1012.3 |
| 20260509164553 | 16 | 0 | 0.0 | 1.6 | 0.13 | 0.13 | 0.13 | 96 | 1012.2 |
| 20260509163055 | 16 | 150 | 0.0 | 4.8 | 0.10 | 0.10 | 0.10 | 94 | 1012.5 |
| 20260509161555 | 16 | 115 | 0.0 | 6.4 | 0.05 | 0.05 | 0.05 | 93 | 1012.8 |
| 20260509160057 | 17 | 103 | 3.2 | 11.3 | 0.00 | 0.00 | 0.00 | 89 | 1012.9 |
| 20260509154555 | 17 | 131 | 3.2 | 12.9 | 0.00 | 0.00 | 0.00 | 86 | 1013.2 |
| 20260509153100 | 18 | 167 | 3.2 | 8.0 | 0.00 | 0.00 | 0.00 | 85 | 1013.5 |
| 20260509151551 | 18 | 128 | 4.8 | 11.3 | 0.00 | 0.00 | 0.00 | 82 | 1013.7 |
| 20260509150052 | 18 | 152 | 3.2 | 9.7 | 0.00 | 0.00 | 0.00 | 82 | 1013.6 |
| 20260509144553 | 19 | 117 | 1.6 | 14.5 | 0.00 | 0.00 | 0.00 | 79 | 1013.7 |
| 20260509143055 | 20 | 73 | 3.2 | 17.7 | 0.00 | 0.00 | 0.00 | 80 | 1013.7 |
| 20260509141559 | 19 | 113 | 1.6 | 8.0 | 0.00 | 0.00 | 0.00 | 83 | 1013.8 |
| 20260509134554 | 18 | 141 | 3.2 | 8.0 | 0.00 | 0.00 | 0.00 | 85 | 1013.6 |
| 20260509133054 | 17 | 0 | 3.2 | 12.9 | 0.00 | 0.00 | 0.00 | 86 | 1013.6 |
| 20260509131555 | 17 | 144 | 1.6 | 6.4 | 0.00 | 0.00 | 0.00 | 88 | 1013.8 |
| 20260509130107 | 16 | 130 | 3.2 | 9.7 | 0.00 | 0.00 | 0.00 | 88 | 1013.9 |
| 20260509124555 | 16 | 143 | 1.6 | 6.4 | 0.00 | 0.00 | 0.00 | 89 | 1014.0 |
| 20260509123053 | 16 | 131 | 1.6 | 9.7 | 0.00 | 0.00 | 0.00 | 89 | 1013.8 |
| 20260509121616 | 15 | 128 | 1.6 | 6.4 | 0.00 | 0.00 | 0.00 | 90 | 1013.9 |
| 20260509120056 | 15 | 127 | 1.6 | 4.8 | 0.00 | 0.00 | 0.00 | 91 | 1013.9 |
| 20260509114600 | 15 | 139 | 0.0 | 6.4 | 0.00 | 0.00 | 0.00 | 90 | 1014.2 |
| 20260509113058 | 15 | 150 | 0.0 | 11.3 | 0.00 | 0.00 | 0.00 | 90 | 1014.2 |
| 20260509111559 | 14 | 161 | 1.6 | 8.0 | 0.00 | 0.00 | 0.00 | 91 | 1014.3 |
| 20260509110100 | 13 | 139 | 0.0 | 4.8 | 0.00 | 0.00 | 0.00 | 92 | 1014.2 |
| 20260509104555 | 13 | 129 | 1.6 | 4.8 | 0.00 | 0.00 | 0.00 | 92 | 1014.2 |
| 20260509103101 | 13 | 143 | 1.6 | 3.2 | 0.00 | 0.00 | 0.00 | 92 | 1014.2 |
| 20260509101601 | 13 | 115 | 0.0 | 3.2 | 0.00 | 0.00 | 0.00 | 91 | 1014.2 |
| 20260509100051 | 13 | 121 | 0.0 | 8.0 | 0.00 | 0.00 | 0.00 | 91 | 1014.1 |
| 20260509094604 | 13 | 139 | 1.6 | 11.3 | 0.00 | 0.00 | 0.00 | 92 | 1014.1 |
| 20260509093054 | 13 | 107 | 0.0 | 3.2 | 0.00 | 0.00 | 0.00 | 92 | 1014.0 |
| 20260509091551 | 13 | 0 | 1.6 | 6.4 | 0.00 | 0.00 | 0.00 | 91 | 1013.8 |
| 20260509090059 | 13 | 0 | 0.0 | 3.2 | 0.00 | 0.00 | 0.00 | 90 | 1013.9 |
| 20260509084559 | 13 | 99 | 1.6 | 6.4 | 0.00 | 0.00 | 0.00 | 90 | 1014.0 |
| 20260509083101 | 13 | 145 | 0.0 | 8.0 | 0.00 | 0.00 | 0.00 | 89 | 1014.0 |
| 20260509081550 | 13 | 111 | 1.6 | 4.8 | 0.00 | 0.00 | 0.00 | 89 | 1014.0 |
| 20260509080056 | 13 | 85 | 0.0 | 8.0 | 0.00 | 0.00 | 0.00 | 88 | 1014.0 |
| 20260509074553 | 13 | 106 | 0.0 | 4.8 | 0.00 | 0.00 | 0.00 | 88 | 1014.3 |
| 20260509073052 | 13 | 123 | 1.6 | 4.8 | 0.00 | 0.00 | 0.00 | 86 | 1014.5 |
| 20260509071552 | 13 | 0 | 0.0 | 4.8 | 0.00 | 0.00 | 0.00 | 86 | 1014.3 |
| 20260509070057 | 13 | 101 | 1.6 | 3.2 | 0.00 | 0.00 | 0.00 | 85 | 1014.3 |
| 20260509064554 | 13 | 153 | 0.0 | 4.8 | 0.00 | 0.00 | 0.00 | 84 | 1014.2 |
| 20260509063100 | 13 | 132 | 0.0 | 6.4 | 0.00 | 0.00 | 0.00 | 82 | 1014.3 |
| 20260509061555 | 13 | 143 | 0.0 | 6.4 | 0.00 | 0.00 | 0.00 | 81 | 1014.3 |
| 20260509060107 | 13 | 0 | 1.6 | 8.0 | 0.00 | 0.00 | 0.00 | 79 | 1014.5 |
| 20260509054551 | 13 | 110 | 0.0 | 9.7 | 0.00 | 0.00 | 0.00 | 77 | 1014.4 |
| 20260509053112 | 13 | 131 | 1.6 | 4.8 | 0.00 | 0.00 | 0.00 | 76 | 1014.4 |
| 20260509051554 | 13 | 168 | 1.6 | 8.0 | 0.00 | 0.00 | 0.00 | 76 | 1014.5 |
| 20260509050049 | 13 | 98 | 1.6 | 8.0 | 0.00 | 0.00 | 0.00 | 76 | 1014.7 |
| 20260509044626 | 13 | 167 | 1.6 | 4.8 | 0.00 | 0.00 | 0.00 | 77 | 1014.6 |
| 20260509043138 | 13 | 0 | 1.6 | 11.3 | 0.00 | 0.00 | 0.00 | 74 | 1014.7 |
| 20260509041550 | 13 | 98 | 1.6 | 12.9 | 0.00 | 0.00 | 0.00 | 77 | 1014.9 |
| 20260509040052 | 13 | 162 | 1.6 | 8.0 | 0.00 | 0.00 | 0.00 | 79 | 1015.1 |
| 20260509034557 | 13 | 151 | 0.0 | 11.3 | 0.00 | 0.00 | 0.00 | 79 | 1015.0 |
| 20260509033055 | 13 | 123 | 1.6 | 11.3 | 0.00 | 0.00 | 0.00 | 78 | 1015.1 |
| 20260509031602 | 13 | 134 | 1.6 | 4.8 | 0.00 | 0.00 | 0.00 | 76 | 1015.2 |
| 20260509030110 | 13 | 131 | 1.6 | 6.4 | 0.00 | 0.00 | 0.00 | 73 | 1015.0 |
| 20260509024558 | 13 | 96 | 0.0 | 3.2 | 0.00 | 0.00 | 0.00 | 74 | 1015.0 |
| 20260509023057 | 13 | 115 | 1.6 | 3.2 | 0.00 | 0.00 | 0.00 | 78 | 1015.0 |
| 20260509021555 | 12 | 160 | 0.0 | 4.8 | 0.00 | 0.00 | 0.00 | 78 | 1015.1 |